[[{"header":{"parameterUnit":"m.s-1","parameterCategory":1,"la1":30.2991,"la2":30.254,"lo1":-89.0895,"lo2":-89.0444,"dy":0.0017,"dx":0.0017,"nx":28,"ny":28,"refTime":"2025-04-05T09:00:00:Z","depth":0,"parameterNumber":2,"parameterNumberName":"U-component_of_WINDS"},"data":[0,0,0,0,0,0,0,0,0,0,0,0,0,0,0,0,0,0,0,0,0,0,0,0,0,0,0,0,0,0,0,0,0,0,0,0,0,0,0,0,0,0,0,0,0,0,0,0,0,0,0,0,0,0,0,0,0,0,-6.3646,-6.3647,0,-6.3722,-6.3722,-6.3723,-6.3695,-6.3693,-6.3691,-6.369,-6.3761,-6.3765,-6.3768,0,0,0,0,0,0,0,0,0,0,0,0,0,-6.3472,-6.3475,-6.3646,-6.3647,-6.3648,-6.3721,-6.3722,-6.3723,-6.3695,-6.3693,-6.3691,-6.3689,-6.376,-6.3764,-6.3768,0,0,0,0,0,0,0,0,0,0,0,0,0,-6.3547,-6.3476,-6.3645,-6.3642,-6.3643,-6.3721,-6.3722,-6.3724,-6.3695,-6.3693,-6.369,-6.3688,-6.3759,-6.3764,-6.3769,-6.3853,0,0,-6.3785,-6.3787,0,0,0,0,0,0,0,0,-6.3543,-6.3554,-6.3642,-6.3643,-6.3643,-6.3696,-6.3687,-6.3767,-6.3696,-6.3675,-6.369,-6.3687,-6.3741,-6.3748,-6.3767,-6.3856,-6.3859,-6.3786,-6.3789,-6.3791,-6.3792,0,0,0,0,0,0,0,-6.3538,-6.355,-6.3675,-6.3643,-6.3644,-6.3636,-6.3644,-6.3702,-6.3721,-6.3677,-6.3675,-6.3685,-6.3741,-6.3762,-6.3769,-6.386,-6.3785,-6.379,-6.3793,-6.3795,-6.4022,-6.4025,0,0,0,0,0,0,-6.3533,-6.3546,-6.3673,-6.3678,-6.3586,-6.3641,-6.365,-6.3682,-6.3721,-6.3725,-6.3687,-6.3683,-6.3755,-6.3763,-6.3771,-6.3871,-6.3791,-6.3796,-6.3799,-6.4019,-6.4023,-6.4026,0,0,0,0,0,0,-6.3529,-6.3545,-6.367,-6.3612,-6.3627,-6.3647,-6.3683,-6.3685,-6.3706,-6.3729,-6.3731,-6.3705,-6.3753,-6.3764,-6.3833,-6.3873,-6.3798,-6.3803,-6.4016,-6.402,-6.4024,-6.4072,0,0,0,0,0,0,-6.3524,-6.3543,-6.3576,-6.3613,-6.363,-6.3732,-6.3685,-6.3688,-6.3716,-6.3712,-6.3747,-6.375,-6.3752,-6.3826,-6.3839,-6.3879,-6.3807,-6.4012,-6.4018,-6.4023,-6.4067,-6.4077,-6.4086,0,0,0,0,0,-6.3518,-6.3585,-6.3578,-6.3593,-6.3672,-6.3734,-6.3744,-6.3747,-6.3719,-6.3751,-6.3766,-6.3749,-6.3868,-6.3833,-6.3847,-6.389,-6.401,-6.4016,-6.4023,-6.4062,-6.4075,-6.4086,0,0,0,0,0,0,-6.355,-6.359,-6.3582,-6.3663,-6.3696,-6.3729,-6.377,-6.376,-6.38,-6.3794,-6.3794,-6.3802,-6.3873,-6.3889,-6.385,-6.3974,-6.3934,-6.3944,-6.396,-6.3972,-6.3982,-6.3974,-6.3812,0,0,0,0,0,-6.3567,-6.3616,-6.3648,-6.3716,-6.3733,-6.3749,-6.3776,-6.3776,-6.3809,-6.3822,-6.3842,-6.3873,-6.3918,-6.3946,-6.3989,-6.4071,-6.4077,-6.4107,-6.4117,-6.4125,-6.4132,-6.4176,-6.4189,-6.4047,-6.4047,-6.4047,0,0,-6.3601,-6.3629,-6.3659,-6.3723,-6.3748,-6.3798,-6.3761,-6.3814,-6.385,-6.3829,-6.3896,-6.3913,-6.3947,-6.4023,-6.4058,-6.4038,-6.4174,-6.4133,-6.414,-6.4142,-6.4184,-6.4197,-6.4209,-6.4051,-6.4051,-6.405,0,0,-6.3688,-6.3716,-6.3775,-6.3802,-6.3842,-6.3853,-6.3868,-6.3904,-6.3914,-6.3982,-6.3968,-6.4011,-6.4087,-6.4113,-6.4136,-6.4237,-6.4221,-6.4251,-6.43,-6.4342,-6.4353,-6.4363,-6.4397,-6.4409,-6.4258,-6.4258,-6.4259,0,-6.3724,-6.3799,-6.3806,-6.3862,-6.3889,-6.3877,-6.3937,-6.3962,-6.4013,-6.4032,-6.4011,-6.4108,-6.4131,-6.4212,-6.4237,-6.4257,-6.4272,-6.4244,-6.4352,-6.4362,-6.4371,-6.4403,-6.4416,-6.4262,-6.4261,-6.4261,-6.4261,0,-6.3841,-6.3894,-6.3937,-6.3989,-6.4023,-6.408,-6.4094,-6.4127,-6.4125,-6.4138,-6.4207,-6.4235,-6.4282,-6.4303,-6.4301,-6.4384,-6.4371,-6.4352,-6.4311,-6.4387,-6.4417,-6.443,-6.4266,-6.4265,-6.4264,-6.4263,0,0,-6.3945,-6.4004,-6.4019,-6.4042,-6.4088,-6.4127,-6.4185,-6.4234,-6.4261,-6.4298,-6.4344,-6.4411,-6.4394,-6.442,-6.4421,-6.446,-6.4536,-6.4435,-6.4436,-6.445,-6.4627,-6.4639,-6.4653,-6.4528,-6.453,-6.4532,-6.4623,0,-6.4033,-6.4134,-6.4144,-6.4234,-6.4282,-6.4273,-6.4322,-6.4355,-6.4369,-6.4411,-6.4427,-6.4474,-6.4449,-6.4464,-6.4502,-6.4518,-6.457,-6.4512,-6.4568,-6.457,-6.4555,-6.4669,-6.4682,-6.4766,-6.4635,-6.4638,-6.4639,0,-6.4148,-6.4191,-6.4286,-6.4326,-6.4347,-6.4391,-6.4437,-6.4478,-6.4515,-6.4523,-6.4555,-6.4551,-6.4609,-6.4571,-6.4649,-6.4609,-6.4633,-6.4645,-6.4648,-6.465,-6.4606,-6.4671,-6.4793,-6.4804,-6.4658,-6.4656,-6.4655,0,-6.4211,-6.4293,-6.436,-6.4381,-6.443,-6.4461,-6.4482,-6.4517,-6.4547,-6.4587,-6.4606,-6.4652,-6.4676,-6.4712,-6.4721,-6.4693,-6.4799,-6.4761,-6.4804,-6.4804,-6.4823,-6.4821,-6.4947,-6.4845,-6.4845,-6.4845,-6.4845,0,-6.4305,-6.4363,-6.4389,-6.443,-6.4495,-6.4506,-6.4569,-6.4589,-6.462,-6.4664,-6.466,-6.4701,-6.4713,-6.4756,-6.4764,-6.4826,-6.4838,-6.4844,-6.4845,-6.4842,-6.4841,-6.4854,-6.4847,-6.4848,-6.4847,-6.4847,-6.4846,0,-6.4384,-6.4404,-6.4477,-6.4519,-6.4531,-6.4576,-6.4611,-6.465,-6.4666,-6.4722,-6.4735,-6.4759,-6.481,-6.4824,-6.4884,-6.4889,-6.4962,-6.4959,-6.495,-6.4948,-6.4989,-6.4984,-6.5126,-6.5144,-6.5033,-6.5034,-6.5035,0,-6.4441,-6.4486,-6.4534,-6.4564,-6.4587,-6.4636,-6.4667,-6.468,-6.4712,-6.4759,-6.4792,-6.4843,-6.4884,-6.4965,-6.4986,-6.5032,-6.5028,-6.5075,-6.5035,-6.5031,-6.5025,-6.5021,-6.5024,-6.5081,-6.5082,-6.5083,-6.5084,0,-6.4539,-6.4548,-6.4594,-6.4644,-6.4681,-6.4721,-6.4758,-6.4783,-6.4802,-6.4838,-6.4891,-6.4923,-6.4986,-6.5035,-6.5083,-6.5103,-6.5096,-6.5098,-6.5109,-6.5105,-6.5096,-6.5099,-6.4966,-6.5093,-6.5092,-6.5091,-6.5091,-6.509,-6.4607,-6.4646,-6.4686,-6.4738,-6.4769,-6.4805,-6.4843,-6.4866,-6.4911,-6.4964,-6.497,-6.5026,-6.5063,-6.5127,-6.5151,-6.5194,-6.518,-6.5198,-6.5201,-6.5205,-6.5207,-6.5094,-6.5203,-6.5203,-6.5203,-6.5203,-6.5202,0,-6.4702,-6.4729,-6.4776,-6.4831,-6.4871,-6.4866,-6.4908,-6.4941,-6.4991,-6.5028,-6.5069,-6.513,-6.5179,-6.5207,-6.5255,-6.5285,-6.5283,-6.5297,-6.5292,-6.5297,-6.5218,-6.5201,-6.5297,-6.5297,-6.5297,-6.5297,-6.5297,-6.5297,-6.4756,-6.4822,-6.4836,-6.4918,-6.4944,-6.5001,-6.5025,-6.5058,-6.5087,-6.5156,-6.5198,-6.5217,-6.5249,-6.5301,-6.5345,-6.5352,-6.5368,-6.5383,-6.5388,-6.5312,-6.5302,-6.5293,-6.5277,-6.5388,-6.5388,-6.5463,-6.5463,-6.5464]},{"header":{"parameterUnit":"m.s-1","parameterCategory":1,"la1":30.2991,"la2":30.254,"lo1":-89.0895,"lo2":-89.0444,"dy":0.0017,"dx":0.0017,"nx":28,"ny":28,"refTime":"2025-04-05T09:00:00:Z","depth":0,"parameterNumber":3,"parameterNumberName":"V-component_of_WINDS"},"data":[0,0,0,0,0,0,0,0,0,0,0,0,0,0,0,0,0,0,0,0,0,0,0,0,0,0,0,0,0,0,0,0,0,0,0,0,0,0,0,0,0,0,0,0,0,0,0,0,0,0,0,0,0,0,0,0,0,0,4.4533,4.4534,0,4.4599,4.46,4.4601,4.4609,4.4609,4.4608,4.4608,4.4671,4.4673,4.4675,0,0,0,0,0,0,0,0,0,0,0,0,0,4.4413,4.4415,4.4533,4.4534,4.4535,4.4599,4.46,4.4601,4.461,4.4609,4.4608,4.4607,4.467,4.4673,4.4676,0,0,0,0,0,0,0,0,0,0,0,0,0,4.447,4.4416,4.4533,4.4547,4.4549,4.4599,4.46,4.4601,4.461,4.4609,4.4608,4.4607,4.4669,4.4673,4.4676,4.4715,0,0,4.4686,4.4688,0,0,0,0,0,0,0,0,4.4467,4.4475,4.4544,4.4546,4.4548,4.4595,4.4581,4.4639,4.461,4.4586,4.4608,4.4607,4.4646,4.4651,4.4666,4.4718,4.4721,4.4687,4.4689,4.469,4.4691,0,0,0,0,0,0,0,4.4463,4.4472,4.4559,4.4545,4.4548,4.4549,4.4557,4.4592,4.462,4.4588,4.4589,4.4597,4.4647,4.4662,4.4667,4.4722,4.4686,4.4689,4.4692,4.4693,4.4813,4.4814,0,0,0,0,0,0,4.4457,4.4469,4.4557,4.4561,4.4505,4.4552,4.456,4.4581,4.462,4.4625,4.4598,4.4597,4.4657,4.4663,4.4669,4.472,4.469,4.4693,4.4695,4.4812,4.4813,4.4814,0,0,0,0,0,0,4.4454,4.4465,4.4554,4.4515,4.4527,4.4555,4.4578,4.4583,4.4598,4.4627,4.4632,4.4608,4.4657,4.4665,4.4705,4.4722,4.4695,4.4698,4.481,4.4812,4.4814,4.482,0,0,0,0,0,0,4.4451,4.4464,4.4479,4.4516,4.4529,4.4589,4.458,4.4585,4.4604,4.4604,4.4638,4.4643,4.4656,4.47,4.4708,4.4726,4.47,4.4809,4.4811,4.4813,4.4819,4.4822,4.4825,0,0,0,0,0,4.4447,4.4477,4.448,4.449,4.4549,4.459,4.4597,4.4613,4.4606,4.4622,4.4641,4.4642,4.4719,4.4704,4.4713,4.4733,4.4808,4.481,4.4813,4.4817,4.4821,4.4825,0,0,0,0,0,0,4.4439,4.4482,4.4486,4.4529,4.4556,4.4591,4.4611,4.4617,4.4645,4.4644,4.4661,4.4669,4.4709,4.4725,4.4707,4.4775,4.4763,4.4767,4.4763,4.4767,4.477,4.4765,4.4703,0,0,0,0,0,4.4443,4.4474,4.4509,4.4543,4.4557,4.4582,4.4601,4.4611,4.4639,4.465,4.4672,4.4699,4.473,4.4749,4.4778,4.4821,4.483,4.484,4.4843,4.4845,4.4849,4.4875,4.4881,4.4823,4.4823,4.4823,0,0,4.445,4.4477,4.4495,4.4543,4.4565,4.4597,4.4592,4.4624,4.4648,4.4655,4.4695,4.4712,4.4743,4.4786,4.4805,4.48,4.4867,4.4849,4.485,4.4853,4.4879,4.4884,4.4889,4.4825,4.4824,4.4824,0,0,4.448,4.4503,4.4536,4.456,4.4595,4.4612,4.462,4.4655,4.4668,4.4709,4.4716,4.4743,4.4795,4.4818,4.4836,4.4878,4.4881,4.4887,4.4903,4.4929,4.4933,4.4938,4.4954,4.496,4.4891,4.4891,4.4891,0,4.4484,4.4533,4.4552,4.4586,4.4607,4.4617,4.4651,4.4672,4.4714,4.4729,4.4723,4.479,4.4811,4.486,4.4871,4.4885,4.4895,4.4883,4.4931,4.4936,4.494,4.4956,4.4962,4.4891,4.4891,4.4891,4.4891,0,4.4538,4.4572,4.4594,4.4637,4.4661,4.4694,4.4718,4.4739,4.4748,4.4766,4.4809,4.4835,4.4872,4.4884,4.4892,4.4935,4.4931,4.4928,4.4917,4.4946,4.4961,4.4967,4.4892,4.4892,4.4892,4.4892,0,0,4.4563,4.4619,4.4627,4.4648,4.4689,4.4715,4.4749,4.4787,4.4806,4.4835,4.4865,4.491,4.4909,4.493,4.494,4.4963,4.4997,4.4957,4.4958,4.4965,4.5049,4.5051,4.5058,4.5,4.5001,4.5002,4.5047,0,4.4599,4.4662,4.4681,4.4734,4.4767,4.4779,4.4809,4.4837,4.4855,4.4885,4.4904,4.4937,4.4932,4.4945,4.4967,4.4988,4.5014,4.4985,4.5028,4.5029,4.502,4.5066,4.5068,4.5109,4.5053,4.5054,4.5054,0,4.4648,4.4682,4.4739,4.4779,4.4793,4.482,4.4858,4.4886,4.4918,4.493,4.4955,4.4965,4.5002,4.4989,4.504,4.502,4.5039,4.5052,4.5054,4.5059,4.5044,4.5073,4.5122,4.5129,4.5064,4.5063,4.5062,0,4.4664,4.4722,4.4765,4.4782,4.4829,4.4848,4.4868,4.49,4.4923,4.4955,4.497,4.5006,4.5025,4.5053,4.5072,4.506,4.5122,4.511,4.5133,4.5133,4.5146,4.5145,4.52,4.5156,4.5156,4.5156,4.5156,0,4.4702,4.4737,4.4773,4.4799,4.4839,4.4861,4.4899,4.492,4.4949,4.4979,4.4991,4.5019,4.5042,4.5073,4.5089,4.513,4.5138,4.5149,4.5153,4.5149,4.5147,4.5161,4.5159,4.5158,4.5158,4.5157,4.5157,0,4.4725,4.4751,4.4798,4.484,4.4851,4.4879,4.4914,4.494,4.496,4.4998,4.5008,4.5039,4.5077,4.5099,4.5145,4.5156,4.5202,4.5204,4.5192,4.5194,4.5216,4.5214,4.5283,4.5293,4.5242,4.5242,4.5243,0,4.4748,4.4776,4.4822,4.4844,4.4865,4.49,4.4924,4.4947,4.4971,4.5013,4.5034,4.5073,4.5106,4.5166,4.5191,4.5228,4.5231,4.5253,4.5237,4.5233,4.5234,4.5232,4.5236,4.5256,4.5256,4.5256,4.5257,0,4.4787,4.48,4.4834,4.4875,4.4904,4.4935,4.4967,4.4984,4.5013,4.504,4.508,4.5105,4.5155,4.5194,4.5234,4.5254,4.526,4.5262,4.527,4.5266,4.5258,4.5264,4.5201,4.526,4.526,4.5259,4.5259,4.5259,4.4812,4.4839,4.4876,4.4915,4.4942,4.4972,4.5,4.5024,4.5059,4.5102,4.5114,4.5156,4.519,4.5244,4.5266,4.5299,4.5296,4.5306,4.5309,4.5311,4.5313,4.5253,4.5306,4.5306,4.5306,4.5306,4.5306,0,4.4854,4.4879,4.4915,4.4961,4.4992,4.4998,4.5034,4.5059,4.5097,4.5129,4.5162,4.5209,4.5248,4.5278,4.5318,4.5339,4.5343,4.5349,4.5347,4.5353,4.5313,4.5303,4.5345,4.5345,4.5345,4.5345,4.5345,4.5345,4.4879,4.4924,4.4941,4.5001,4.5026,4.5069,4.509,4.5118,4.5144,4.5197,4.523,4.525,4.5282,4.5324,4.536,4.5368,4.5383,4.5388,4.5396,4.5359,4.5355,4.5351,4.5342,4.5391,4.5391,4.5433,4.5434,4.5434]}]]